WX4MMM Weather Reports


Display with metric or nautical units.
time (UTC)temp
F
wind
direction
speed
MPH
gust
MPH
rain 1hr
in
rain 24hr
in
rain mn
in
humidity
%
barometer
mb
20260507023507 66 275 0.0 0.0 0.00 0.11 0.10 92 1011.4
20260507023004 66 160 0.0 1.0 0.00 0.11 0.10 92 1011.3
20260507022504 67 240 0.0 1.0 0.00 0.11 0.10 92 1011.4
20260507022004 67 303 0.0 1.0 0.00 0.11 0.10 92 1011.3
20260507021503 67 278 0.0 1.0 0.00 0.11 0.10 92 1011.1
20260507021004 67 221 0.0 0.0 0.00 0.11 0.10 92 1011.1
20260507020503 67 221 0.0 0.0 0.00 0.11 0.10 92 1011.2
20260507020004 67 221 0.0 0.0 0.00 0.11 0.10 92 1011.3
20260507015504 67 305 0.0 1.0 0.00 0.11 0.10 92 1011.4
20260507015004 67 293 0.0 1.0 0.00 0.11 0.10 92 1011.5
20260507014504 67 310 0.0 1.0 0.00 0.11 0.10 92 1011.5
20260507014003 67 223 0.0 1.0 0.00 0.11 0.10 92 1011.3
20260507013502 67 296 0.0 0.0 0.00 0.11 0.10 91 1011.2
20260507013003 67 296 0.0 1.0 0.00 0.11 0.10 91 1011.4
20260507012503 67 285 0.0 0.0 0.00 0.11 0.10 91 1011.3
20260507011002 67 285 0.0 1.0 0.00 0.11 0.10 90 1011.3
20260507010502 67 291 0.0 0.0 0.00 0.11 0.10 90 1011.2
20260507010002 67 292 0.0 1.0 0.00 0.11 0.10 90 1011.4
20260507005503 67 274 0.0 1.0 0.00 0.11 0.10 89 1011.4
20260507005003 68 267 0.0 1.0 0.00 0.11 0.10 89 1011.3
20260507004004 68 286 0.0 1.0 0.00 0.11 0.10 88 1011.3
20260507003503 68 201 0.0 1.0 0.00 0.11 0.10 87 1011.5
20260507003003 68 266 0.0 0.0 0.00 0.11 0.10 86 1011.5
20260507002502 69 0 0.0 1.0 0.00 0.11 0.10 86 1011.3
20260507002003 69 303 0.0 0.0 0.00 0.11 0.10 85 1011.4
20260507001002 69 53 0.0 1.0 0.00 0.11 0.10 84 1011.2
20260507000504 70 340 0.0 1.0 0.00 0.11 0.10 84 1011.2
20260507000003 70 263 0.0 0.0 0.00 0.11 0.10 82 1011.3
20260506235503 70 258 0.0 1.0 0.00 0.11 0.10 82 1011.3
20260506234503 71 285 0.0 1.0 0.00 0.11 0.10 80 1011.3
20260506234003 71 268 0.0 1.0 0.00 0.11 0.10 80 1011.4
20260506233004 71 51 1.0 2.0 0.00 0.11 0.10 78 1011.3
20260506232502 72 256 0.0 1.0 0.00 0.11 0.10 78 1011.3
20260506232003 72 47 0.0 2.0 0.00 0.11 0.10 76 1011.4
20260506231502 72 248 1.0 1.0 0.00 0.11 0.10 76 1011.5
20260506231005 72 354 0.0 1.0 0.00 0.11 0.10 75 1011.5
20260506230503 73 139 0.0 1.0 0.00 0.11 0.10 75 1011.5
20260506230002 73 7 0.0 3.0 0.00 0.11 0.10 74 1011.4
20260506225503 73 225 0.0 1.0 0.00 0.11 0.10 74 1011.3
20260506225002 73 236 1.0 3.0 0.00 0.11 0.10 73 1011.3
20260506224503 74 237 1.0 3.0 0.00 0.11 0.10 73 1011.4
20260506224003 74 145 0.0 1.0 0.00 0.11 0.10 72 1011.4
20260506223503 74 292 0.0 1.0 0.00 0.11 0.10 73 1011.4
20260506223004 74 296 0.0 1.0 0.00 0.11 0.10 71 1011.1
20260506222503 74 212 1.0 5.0 0.00 0.11 0.10 72 1011.1
20260506222003 74 262 0.0 3.0 0.00 0.11 0.10 72 1011.0
20260506220003 73 281 1.0 3.0 0.00 0.11 0.10 73 1010.9
20260506215503 73 149 1.0 3.0 0.00 0.11 0.10 74 1011.0
20260506214504 73 168 1.0 3.0 0.00 0.11 0.10 75 1011.0
20260506214003 72 247 1.0 3.0 0.00 0.11 0.10 76 1011.2
20260506213003 72 152 1.0 3.0 0.00 0.11 0.10 77 1011.1
20260506212504 72 209 2.0 5.0 0.00 0.11 0.10 77 1011.4
20260506212003 72 172 2.0 6.0 0.00 0.11 0.10 78 1011.2
20260506211506 71 160 2.0 6.0 0.00 0.11 0.10 79 1011.2
20260506211003 71 223 2.0 5.0 0.00 0.11 0.10 80 1011.2
20260506205503 71 219 2.0 3.0 0.00 0.11 0.10 81 1011.1
20260506205003 71 308 0.0 2.0 0.00 0.11 0.10 83 1011.0
20260506204002 69 164 1.0 5.0 0.00 0.11 0.10 85 1010.9
20260506203503 69 258 0.0 3.0 0.00 0.11 0.10 86 1010.9
20260506203003 69 259 1.0 2.0 0.00 0.11 0.10 87 1011.0
20260506202503 69 231 1.0 3.0 0.00 0.11 0.10 87 1011.0
20260506201503 69 229 0.0 5.0 0.01 0.11 0.09 88 1011.3
20260506201003 69 212 2.0 5.0 0.01 0.11 0.09 88 1011.3
20260506200502 68 206 1.0 3.0 0.01 0.11 0.09 88 1011.5
20260506200003 68 257 1.0 3.0 0.02 0.11 0.09 88 1011.6
20260506195503 68 273 1.0 2.0 0.02 0.11 0.09 89 1011.5
20260506195003 67 222 1.0 2.0 0.04 0.11 0.09 91 1011.4
20260506194502 67 237 1.0 3.0 0.06 0.11 0.09 91 1011.5
20260506194003 67 239 1.0 3.0 0.07 0.11 0.09 91 1011.5
20260506193503 67 263 1.0 3.0 0.08 0.11 0.09 91 1011.4
20260506193003 67 139 0.0 2.0 0.08 0.11 0.09 91 1011.5
20260506192502 67 187 1.0 3.0 0.08 0.11 0.09 90 1011.7
20260506191503 67 188 1.0 3.0 0.08 0.10 0.10 89 1012.6
20260506191003 67 156 2.0 5.0 0.08 0.09 0.09 90 1013.0
20260506185503 69 239 0.0 3.0 0.06 0.07 0.07 85 1013.7
20260506184503 72 180 2.0 7.0 0.02 0.03 0.03 74 1013.9
20260506184003 73 161 2.0 5.0 0.01 0.02 0.02 68 1013.6
20260506183503 73 10 1.0 8.0 0.00 0.01 0.01 65 1013.4
20260506183003 74 284 2.0 8.0 0.00 0.01 0.01 65 1013.3
20260506182003 74 207 2.0 7.0 0.00 0.01 0.01 65 1013.4
20260506181003 74 246 2.0 5.0 0.00 0.01 0.01 65 1013.2
20260506180503 74 193 2.0 5.0 0.01 0.01 0.01 65 1013.1
20260506180004 74 236 2.0 3.0 0.01 0.01 0.01 65 1013.3
20260506175502 74 170 2.0 5.0 0.01 0.01 0.01 65 1013.2
20260506175003 73 181 1.0 3.0 0.01 0.01 0.01 67 1013.2
20260506174503 73 234 1.0 3.0 0.01 0.01 0.01 67 1013.2
20260506174003 72 144 1.0 3.0 0.01 0.01 0.01 68 1013.2
20260506173502 72 177 1.0 3.0 0.01 0.01 0.01 67 1013.4
20260506173003 72 156 1.0 5.0 0.01 0.01 0.01 68 1013.5
20260506172503 71 300 0.0 2.0 0.01 0.01 0.01 69 1013.4
20260506172003 71 307 1.0 3.0 0.01 0.01 0.01 70 1013.5
20260506171504 70 347 1.0 3.0 0.01 0.01 0.01 71 1013.7
20260506171003 70 165 2.0 7.0 0.01 0.01 0.01 72 1013.9
20260506170503 70 180 2.0 3.0 0.01 0.01 0.01 71 1014.0
20260506165502 70 41 1.0 2.0 0.01 0.01 0.01 71 1014.0
20260506165003 70 228 0.0 3.0 0.00 0.00 0.00 71 1013.9
20260506164502 70 177 2.0 3.0 0.00 0.00 0.00 71 1014.1
20260506163503 70 160 1.0 3.0 0.00 0.00 0.00 68 1014.1
20260506162003 70 240 1.0 3.0 0.00 0.00 0.00 67 1014.0
20260506161502 70 81 2.0 3.0 0.00 0.00 0.00 66 1014.0
20260506161003 70 117 1.0 2.0 0.00 0.00 0.00 66 1014.1
20260506160503 70 199 1.0 3.0 0.00 0.00 0.00 65 1014.1
20260506160003 70 314 1.0 2.0 0.00 0.00 0.00 68 1014.0
20260506155504 70 242 2.0 3.0 0.00 0.00 0.00 67 1014.0
20260506154503 69 253 1.0 3.0 0.00 0.00 0.00 66 1013.9
20260506153503 69 298 1.0 2.0 0.00 0.00 0.00 66 1014.0
20260506153003 69 189 1.0 2.0 0.00 0.00 0.00 67 1014.0
20260506152504 69 326 0.0 2.0 0.00 0.00 0.00 68 1014.0
20260506152003 69 155 2.0 3.0 0.00 0.00 0.00 68 1013.8
20260506151003 69 152 1.0 2.0 0.00 0.00 0.00 66 1013.8
20260506150503 69 179 1.0 2.0 0.00 0.00 0.00 66 1013.8
20260506145503 69 163 1.0 2.0 0.00 0.00 0.00 67 1013.6
20260506145003 69 185 1.0 3.0 0.00 0.00 0.00 67 1013.5
20260506144503 69 207 3.0 5.0 0.00 0.00 0.00 66 1013.5
20260506144003 69 104 1.0 3.0 0.00 0.00 0.00 66 1013.5
20260506143003 68 125 1.0 3.0 0.00 0.00 0.00 66 1013.6
20260506142502 67 241 2.0 2.0 0.00 0.00 0.00 68 1013.6
20260506141003 67 177 1.0 2.0 0.00 0.00 0.00 69 1014.0
20260506140503 67 213 1.0 2.0 0.00 0.00 0.00 69 1014.0
20260506140003 67 214 1.0 3.0 0.00 0.00 0.00 68 1014.0
20260506135503 66 152 1.0 3.0 0.00 0.00 0.00 69 1014.1
20260506135003 66 154 2.0 2.0 0.00 0.00 0.00 69 1014.0
20260506134502 66 172 1.0 2.0 0.00 0.00 0.00 70 1014.1
20260506134003 66 155 0.0 2.0 0.00 0.00 0.00 70 1014.2
20260506133503 65 174 1.0 2.0 0.00 0.00 0.00 70 1014.2
20260506133003 65 200 1.0 2.0 0.00 0.00 0.00 70 1014.2
20260506131502 65 176 0.0 3.0 0.00 0.00 0.00 72 1014.6
20260506131004 65 157 1.0 2.0 0.00 0.00 0.00 70 1014.6
20260506125503 65 288 2.0 3.0 0.00 0.00 0.00 71 1014.2
20260506125003 65 87 1.0 2.0 0.00 0.00 0.00 71 1014.2
20260506124504 65 174 1.0 3.0 0.00 0.00 0.00 71 1014.1
20260506124003 65 183 3.0 6.0 0.00 0.00 0.00 71 1014.0
20260506123502 65 206 1.0 3.0 0.00 0.00 0.00 72 1013.9
20260506123003 65 246 1.0 5.0 0.00 0.00 0.00 72 1013.8
20260506122503 65 165 2.0 5.0 0.00 0.00 0.00 71 1013.7
20260506122003 65 339 1.0 2.0 0.00 0.00 0.00 72 1013.7
20260506121503 65 176 1.0 2.0 0.00 0.00 0.00 72 1013.6
20260506120502 64 162 2.0 5.0 0.00 0.00 0.00 72 1013.5
20260506120003 64 215 1.0 2.0 0.00 0.00 0.00 73 1013.4
20260506115503 64 81 2.0 5.0 0.00 0.00 0.00 72 1013.3
20260506115003 64 198 1.0 2.0 0.00 0.00 0.00 73 1013.3
20260506114502 64 155 2.0 3.0 0.00 0.00 0.00 73 1013.5
20260506114003 64 209 1.0 5.0 0.00 0.00 0.00 73 1013.5
20260506113503 64 194 2.0 3.0 0.00 0.00 0.00 74 1013.4
20260506113003 63 150 2.0 3.0 0.00 0.00 0.00 74 1013.5
20260506112503 63 142 1.0 2.0 0.00 0.00 0.00 74 1013.6
20260506112003 63 219 1.0 3.0 0.00 0.00 0.00 74 1013.6
20260506111503 63 355 1.0 3.0 0.00 0.00 0.00 74 1013.5
20260506110503 63 140 1.0 3.0 0.00 0.00 0.00 74 1013.4
20260506110003 63 282 1.0 2.0 0.00 0.00 0.00 75 1013.5
20260506105502 63 292 1.0 1.0 0.00 0.00 0.00 75 1013.5
20260506103503 63 325 1.0 2.0 0.00 0.00 0.00 76 1013.3
20260506103003 63 168 0.0 3.0 0.00 0.00 0.00 76 1013.3
20260506102003 62 193 2.0 3.0 0.00 0.00 0.00 76 1013.3
20260506101503 62 228 0.0 1.0 0.00 0.00 0.00 76 1013.4
20260506100503 62 211 0.0 3.0 0.00 0.00 0.00 76 1013.6
20260506100003 62 154 1.0 2.0 0.00 0.00 0.00 76 1013.6
20260506095503 62 168 1.0 5.0 0.00 0.00 0.00 76 1013.6
20260506095003 62 169 0.0 2.0 0.00 0.00 0.00 77 1013.7
20260506094503 62 153 0.0 2.0 0.00 0.00 0.00 77 1013.7
20260506094005 62 227 0.0 1.0 0.00 0.00 0.00 77 1013.6
20260506093503 62 140 0.0 5.0 0.00 0.00 0.00 77 1013.7
20260506093005 62 165 1.0 5.0 0.00 0.00 0.00 77 1013.8
20260506092506 62 32 1.0 2.0 0.00 0.00 0.00 78 1013.9
20260506092003 62 255 1.0 3.0 0.00 0.00 0.00 78 1013.8
20260506091503 62 183 2.0 2.0 0.00 0.00 0.00 78 1013.9
20260506091003 62 233 2.0 3.0 0.00 0.00 0.00 78 1013.9
20260506090503 62 241 1.0 3.0 0.00 0.00 0.00 79 1013.9
20260506090003 61 169 2.0 3.0 0.00 0.00 0.00 79 1013.8
20260506085503 61 185 0.0 2.0 0.00 0.00 0.00 80 1013.7
20260506085003 61 4 0.0 2.0 0.00 0.00 0.00 80 1013.6
20260506084504 61 271 0.0 2.0 0.00 0.00 0.00 80 1013.8
20260506083503 61 201 1.0 2.0 0.00 0.00 0.00 80 1014.0
20260506083003 61 263 0.0 1.0 0.00 0.00 0.00 80 1013.9
20260506082502 61 271 0.0 1.0 0.00 0.00 0.00 80 1013.9
20260506082003 61 291 0.0 2.0 0.00 0.00 0.00 80 1013.9
20260506081504 61 336 0.0 2.0 0.00 0.00 0.00 80 1013.9
20260506081003 61 63 0.0 2.0 0.00 0.00 0.00 80 1013.9
20260506073503 62 342 0.0 1.0 0.00 0.00 0.00 78 1014.1
20260506073003 62 262 0.0 1.0 0.00 0.00 0.00 78 1014.0
20260506072503 62 286 0.0 2.0 0.00 0.00 0.00 78 1014.1
20260506072003 62 202 0.0 1.0 0.00 0.00 0.00 78 1014.1
20260506071503 62 179 0.0 1.0 0.00 0.00 0.00 78 1014.2
20260506071003 62 82 1.0 2.0 0.00 0.00 0.00 77 1014.2
20260506070504 62 221 0.0 1.0 0.00 0.00 0.00 77 1014.0
20260506062503 63 202 1.0 3.0 0.00 0.00 0.00 75 1014.3
20260506062003 63 239 1.0 2.0 0.00 0.00 0.00 75 1014.4
20260506061503 64 177 1.0 2.0 0.00 0.00 0.00 75 1014.5
20260506061004 64 184 1.0 3.0 0.00 0.00 0.00 75 1014.5
20260506060503 64 171 2.0 3.0 0.00 0.00 0.00 74 1014.5
20260506051003 65 262 1.0 2.0 0.00 0.00 0.00 73 1014.8
20260506050503 65 286 1.0 3.0 0.00 0.00 0.00 73 1015.0
20260506044503 65 177 1.0 5.0 0.00 0.00 0.00 73 1014.9
20260506043503 65 203 2.0 3.0 0.00 0.00 0.00 72 1014.9
20260506043003 65 254 2.0 2.0 0.00 0.00 0.00 72 1014.9
20260506042503 65 142 2.0 2.0 0.00 0.00 0.00 72 1015.0
20260506042003 66 223 1.0 3.0 0.00 0.00 0.00 71 1015.0
20260506041503 66 154 2.0 3.0 0.00 0.00 0.00 71 1014.9
20260506041003 66 258 1.0 3.0 0.00 0.00 0.00 70 1015.0
20260506040504 66 255 1.0 3.0 0.00 0.00 0.00 70 1015.0
20260506035503 66 209 2.0 3.0 0.00 0.00 0.00 68 1014.9
20260506035004 66 219 1.0 3.0 0.00 0.00 0.00 68 1015.0
20260506034503 67 281 2.0 3.0 0.00 0.00 0.00 67 1015.0
20260506034003 67 233 2.0 7.0 0.00 0.00 0.00 67 1015.0
20260506033503 67 236 3.0 6.0 0.00 0.00 0.00 66 1015.0
20260506033004 67 69 1.0 3.0 0.00 0.00 0.00 66 1015.0
20260506032503 67 180 1.0 3.0 0.00 0.00 0.00 65 1015.0
20260506031503 68 223 1.0 3.0 0.00 0.00 0.00 64 1015.1
20260506030503 68 227 1.0 3.0 0.00 0.00 0.00 63 1015.1
20260506030003 68 254 3.0 6.0 0.00 0.00 0.00 63 1015.0
20260506025503 68 197 3.0 7.0 0.00 0.00 0.00 62 1015.1
20260506025004 69 149 2.0 3.0 0.00 0.00 0.00 62 1015.1
20260506024503 69 183 2.0 6.0 0.00 0.00 0.00 61 1015.1
20260506024003 69 252 1.0 2.0 0.00 0.00 0.00 61 1015.0